Location: Richmond
(37.5540°N, 77.4610°W)
Time: 12:32:48
(UTC-04:00)

ISS - Visible Passes

Search period start: 15 May 2021 00:00
Search period end: 25 May 2021 00:00
Orbit: 417 x 422 km, 51.6° (Epoch: 15 May)

Date Brightness Start Highest point End Pass type
(mag) Time Alt. Az. Time Alt. Az. Time Alt. Az.
15 May -1.8 03:56:01 10° NNW 03:59:04 31° NNE 04:02:07 10° E visible
15 May -2.7 20:38:11 10° S 20:41:01 26° SE 20:43:52 10° ENE visible
15 May -1.8 22:14:43 10° W 22:17:45 31° NNW 22:20:48 10° NNE visible
16 May -1.1 03:08:49 10° NNW 03:11:29 21° NNE 03:14:08 10° E visible
16 May -3.6 04:45:11 10° WNW 04:48:28 48° SW 04:51:43 10° SSE visible
16 May -2.8 21:26:57 10° WSW 21:30:13 50° NW 21:33:31 10° NE visible
16 May -0.3 23:06:22 10° NW 23:07:40 12° NNW 23:08:59 10° N visible
17 May -0.3 02:26:37 - ENE 02:26:37 - ENE 02:21:38 10° NNW visible
17 May -3.9 04:00:11 47° NW 04:01:03 89° E 04:04:25 10° SE visible
17 May -3.7 20:39:24 10° SW 20:42:45 90° NNW 20:46:07 10° NE visible
17 May -0.5 22:17:53 10° WNW 22:19:58 15° NNW 22:22:03 10° NNE visible
18 May -0.9 21:29:41 10° W 21:32:18 21° NNW 21:34:57 10° NNE visible
19 May -1.6 20:41:41 10° W 20:44:42 30° NNW 20:47:44 10° NNE visible
20 May -0.5 21:33:19 10° NW 21:34:37 12° NNW 21:35:54 10° N visible
21 May -0.2 00:48:40 10° NNW 00:48:48 11° NNW 00:48:48 11° NNW visible
21 May -0.7 20:44:49 10° WNW 20:46:54 15° NNW 20:48:57 10° NNE visible
22 May -0.5 00:01:42 10° N 00:02:45 12° NNE 00:02:45 12° NNE visible
24 May -0.6 00:02:39 10° NNW 00:03:40 15° N 00:03:40 15° N visible
24 May -1.0 23:15:31 10° NNW 23:17:38 15° NNE 23:17:42 15° NNE visible
